FENGYUN 1C DEB

Satellite information

Favourite Embed

Satellite Type and Status

DEBRISIN ORBIT

Key statistics

Satellite FENGYUN 1C DEB at a glance.

Uptime

9664

Days in orbit

Revolutions

≈ 14.3

Per day

Orbit

SSO

Sun Synchronous Orbit

Inclination

98.9

Latest

Satellite identification and parameters

Extended collection of information and parameters for FENGYUN 1C DEB.

Object identification

Identified? True

Debris? True

Object name: FENGYUN 1C DEB

International designator: 1999-025CA

Object number (NORAD): 29784

Object ID (CCSDS): 29784

Country: PEOPLES REPUBLIC OF CHINA (PRC)

Current information (Y/N): Y

RCS size: SMALL

Orbital parameters

Period: 100.674 minutes

Inclination: 98.9405 deg

SMA: 7168.668 km

Apoapsis: 834.58 km

Periapsis: 746.486 km

RAAN: 214.1486 deg

Eccentricy: 0.00614439

Argument of periapsis: 81.8917 deg

Mean anomaly: 306.212 deg

Mean motion: 14.30359056 rev/day

Mean motion (dot): 0.00001841 rev/day2

B* drag term: 0.00071143972 1/REarth

Two-line elements (TLE)

Creation date: Oct. 24, 2025, 2:48 a.m.

Reference frame: TEME

Reference center: EARTH

Epoch: Oct. 23, 2025, 6:02 p.m. UTC

TLE line 0: 0 FENGYUN 1C DEB

TLE line 1: 1 29784U 99025CA 25296.75155907 .00001841 00000-0 71144-3 0 9992

TLE line 2: 2 29784 98.9405 214.1486 0061444 81.8917 306.2120 14.30359056976457

Live tracking on map

Real-time ground track for satellite FENGYUN 1C DEB.

In-orbit conjunctions

A list of the most updated potential collisions computed for object FENGYUN 1C DEB.

Target Orbit TCA Probability of collision Miss distance Type
FENGYUN 1C DEB SSO 2025-01-23 09:54:15 0.000147045 33.0 (m) DEBRIS
CZ-6A DEB LEO 2024-10-05 03:15:04 0.0001319218 187.0 (m) DEBRIS
SL-16 DEB LEO 2024-09-28 04:25:06 0.001013949 941.0 (m) DEBRIS
FENGYUN 1C DEB SSO 2024-09-25 14:38:55 0.0005081838 408.0 (m) DEBRIS
COSMOS 1867 COOLANT LEO 2024-07-04 05:15:45 0.0001008827 750.0 (m) DEBRIS

Associated space launch

Chinese polar orbiting meteorological satellite

FENGYUN 1C DEB was lifted into orbit during the mission ‘Long March 4B | Feng Yun 1C’, on board a Long March 4B space rocket.

The launch took place on May 10, 1999, 1:33 a.m. from Launch Complex 7.

For more information about the launch, click the button.

Launch to space Long March 4B | Feng Yun 1C
Long March 4B | Feng Yun 1C

Agency: N/A

Status: Launch Successful

Launch date: May 10, 1999, 1:33 a.m. UTC

Rocket: Long March 4B

Launch pad: Launch Complex 7

Location: Taiyuan Satellite Launch Center, People's Republic of China

...

Latest news about this satellite

There are no fresh news available about this satellite. Check back as we update our databases every day.


Newsletter sign-up

Weekly statistics, charts and insights to help you stay on top of the space industry.